Погода в Микулове

Чехия     48°48′28″N   16°38′19″E
темп.,
°C
ветер,
м/с
пор.,
м/с
влажн.,
%
обл.,
%
осадки,
мм/ч
давл.,
гПа
погр.,
м
18 апреля, вс
вс1823:00+5ссз2583100 0.0 1020263
02:00+5ссз3686100 0.0 1019326
05:00+4ссз3686100 0.0 1019411
08:00+5с3685100 0.0 1019593
11:00+7ссв4581100 0.1 1019732
14:00+9ссв4467100 0.1 10181115
17:00+10ссв3462100 0.0 10171062
20:00+7с3376100 0.0 101868
19 апреля, пн
пн1923:00+6ссз3582100 0.0 1019119
02:00+5ссз2385100 0.0 1018100
05:00+5ссз2386100 0.0 101781
08:00+6ссз2482100 0.1 1017237
11:00+6с3589100 0.4 1017387
14:00+7сз0188100 0.6 1017231
17:00+8з1287100 0.3 1016305
20:00+7з1295100 0.9 101646
20 апреля, вт
вт2023:00+7з2495100 0.9 1015123
02:00+6зсз3597100 3.9 1014212
05:00+6сз2396100 0.6 1014126
08:00+7сз2391100 0.7 1014228
11:00+9св3480100 0.1 1015651
14:00+12ссз2364100 0.8 10141007
17:00+12сз3363100 0.8 10141043
20:00+8зюз238382 1.3 101536
21 апреля, ср
ср2123:00+6з11895 0.0 101610
02:00+5з11905 0.0 101610
05:00+4з228783 0.0 101615
08:00+7з2377100 0.0 1016151
11:00+12з34615 0.0 1016763
14:00+15зюз455273 0.4 10151802
17:00+15з455673 0.6 10151572
20:00+10зюз337617 0.8 101535
22 апреля, чт
чт2223:00+8з33845 0.0 101644
02:00+7з3683100 0.0 101797
05:00+8зюз3586100 0.2 1017126
08:00+9сз378294 0.6 1019466
11:00+7ссз2377100 0.0 1021435
14:00+9зюз2371100 0.1 1020473
17:00+10зюз356599 0.2 1019816
20:00+7зюз1166100 0.6 102016